Weather History for Red Bluff, CA

Change the Weather History Date:

Wednesday, February 13, 2013

  Actual Average Record
Temperature  
Mean Temperature 54 °F -  
Max Temperature 73 °F 59 °F 82 °F (1977)
Min Temperature 35 °F 41 °F 27 °F (1946)
Degree Days  
Heating Degree Days 11    
Growing Degree Days 4 (Base 50)    
Moisture  
Dew Point 34 °F    
Average Humidity 56    
Maximum Humidity 85    
Minimum Humidity 11    
Precipitation  
Precipitation 0.00 in - - ()
Sea Level Pressure  
Sea Level Pressure 30.28 in    
Wind  
Wind Speed 6 mph (NNW)    
Max Wind Speed 16 mph    
Max Gust Speed -    
Visibility 10 miles    
Events      
Averages and records for this station are not official NWS values.
T = Trace of Precipitation, MM = Missing Value Source: NWS Daily Summary

Daily Weather History Graph

Daily Weather History Graph

Search for Another Location

Airport:

Trip Planner

Search our weather history database for the weather conditions in past years. The results will help you decide how hot, cold, wet, or windy it might be!

Date:

Astronomy

Feb. 13, 2013 Rise Set
Actual Time 7:04 AM PST 5:42 PM PST
Civil Twilight 6:36 AM PST 6:10 PM PST
Nautical Twilight 6:04 AM PST 6:42 PM PST
Astronomical Twilight 5:32 AM PST 7:14 PM PST
Moon 8:36 AM PST (2/13) 9:51 PM PST (2/13)
Length of Visible Light 11h 34m
Length of Day
10h 38m
Waxing Crescent, 14% of the Moon is Illuminated
Feb 13
Waxing Crescent
Feb 17
First Quarter
Feb 25
Full
Mar 4
Last Quarter
Mar 11
New

Hourly Weather History & Observations

Time (PST) Temp. Windchill Dew Point Humidity Pressure Visibility Wind Dir Wind Speed Gust Speed Precip Events Conditions
12:54 AM 37.9 °F 33.5 °F 33.1 °F 83% 30.34 in 10.0 mi NNW 5.8 mph - N/A   Clear
1:54 AM 36.0 °F 31.1 °F 30.9 °F 82% 30.33 in 10.0 mi NNW 5.8 mph - N/A   Clear
2:54 AM 35.1 °F 31.0 °F 30.9 °F 85% 30.32 in 10.0 mi North 4.6 mph - N/A   Clear
3:54 AM 37.0 °F 31.6 °F 30.9 °F 79% 30.32 in 10.0 mi NNW 6.9 mph - N/A   Clear
4:54 AM 37.0 °F 34.5 °F 30.9 °F 79% 30.32 in 10.0 mi NNW 3.5 mph - N/A   Clear
5:54 AM 37.0 °F 33.3 °F 30.0 °F 76% 30.33 in 10.0 mi North 4.6 mph - N/A   Clear
6:54 AM 35.1 °F 31.0 °F 30.0 °F 82% 30.33 in 10.0 mi NNW 4.6 mph - N/A   Clear
7:54 AM 37.0 °F - 30.9 °F 79% 30.35 in 10.0 mi Calm Calm - N/A   Clear
8:54 AM 48.0 °F - 35.1 °F 61% 30.35 in 10.0 mi NNW 3.5 mph - N/A   Clear
9:54 AM 54.0 °F - 34.0 °F 47% 30.34 in 10.0 mi North 4.6 mph - N/A   Clear
10:54 AM 61.0 °F - 35.1 °F 38% 30.32 in 10.0 mi North 4.6 mph - N/A   Clear
11:54 AM 66.9 °F - 30.9 °F 26% 30.29 in 10.0 mi NNW 16.1 mph - N/A   Clear
12:54 PM 70.0 °F - 32.0 °F 25% 30.26 in 10.0 mi North 11.5 mph - N/A   Clear
1:54 PM 72.0 °F - 32.0 °F 23% 30.22 in 10.0 mi North 10.4 mph - N/A   Clear
2:54 PM 73.9 °F - 33.1 °F 22% 30.20 in 10.0 mi North 11.5 mph - N/A   Clear
3:54 PM 73.9 °F - 30.9 °F 21% 30.19 in 10.0 mi North 9.2 mph - N/A   Clear
4:54 PM 72.0 °F - 32.0 °F 23% 30.18 in 10.0 mi North 6.9 mph - N/A   Clear
5:54 PM 63.0 °F - 35.1 °F 35% 30.19 in 10.0 mi NW 5.8 mph - N/A   Clear
6:54 PM 63.0 °F - 34.0 °F 34% 30.20 in 10.0 mi NW 5.8 mph - N/A   Clear
7:54 PM 53.1 °F - 42.1 °F 66% 30.23 in 10.0 mi SSE 5.8 mph - N/A   Clear
8:54 PM 53.1 °F - 42.1 °F 66% 30.25 in 10.0 mi NE 3.5 mph - N/A   Clear
9:54 PM 46.9 °F - 41.0 °F 80% 30.26 in 10.0 mi NNW 3.5 mph - N/A   Clear
10:54 PM 45.0 °F 41.8 °F 39.0 °F 80% 30.27 in 10.0 mi WNW 5.8 mph - N/A   Clear
11:54 PM 42.1 °F - 37.0 °F 82% 30.28 in 10.0 mi Calm Calm - N/A   Clear